Probability
0 0 1 2 1 0 0 0 0 0 1 1 1 0 0 0 1 2 2 1 1 0 0 0 1 2 3 4 3 3 3 3 3 2 1 1 0 0 0 0 0 1 2
0 0 1 2 1 0 0 0 0 0 0 0 0 0 0 1 1 2 2 1 1 0 0 0 0 1 2 2 2 2 3 3 3 2 1 1 0 0 0 0 0 1 2
0 0 1 2 1 0 0 0 0 0 0 0 0 0 1 3 3 2 2 2 2 2 1 1 0 0 1 1 0 1 3 3 3 2 1 0 0 0 0 0 0 1 2
0 0 1 1 1 0 0 0 1 1 2 2 2 1 3 4 4 3 3 3 4 4 3 2 1 0 0 0 0 1 2 3 3 2 1 0 0 0 0 0 0 1 2
0 0 0 1 1 0 0 0 1 1 3 4 5 4 4 5 5 5 4 4 4 5 4 3 1 0 0 0 0 1 2 2 1 1 0 0 0 0 1 1 1 1 2
0 0 0 0 1 1 1 1 0 2 4 6 6 6 5 4 5 6 4 3 4 5 4 3 1 1 1 0 0 0 1 1 0 0 0 0 0 0 1 2 1 1 2
0 0 0 1 1 1 2 1 1 2 4 6 7 7 6 6 7 6 5 4 5 5 4 3 3 2 2 2 1 0 0 0 0 0 0 0 0 1 2 2 1 1 1
0 0 0 1 1 2 3 3 3 4 6 7 7 8 8 8 8 7 5 4 4 4 4 3 3 3 4 4 4 2 1 0 0 0 0 0 0 1 2 2 1 2 2
0 0 0 0 1 3 4 5 5 5 7 9 9 9 9 9 8 6 5 4 4 4 4 4 4 3 4 6 6 4 2 1 0 0 0 0 0 1 2 2 2 2 3
0 0 0 0 0 2 3 5 6 6 7 9 9 8 8 8 6 4 5 5 4 4 4 4 4 4 4 5 6 5 3 1 0 0 1 1 1 1 2 2 2 2 3
0 0 0 0 0 0 2 3 4 5 6 7 8 7 7 7 5 4 4 5 5 4 3 3 4 3 3 4 5 5 3 1 0 0 0 0 0 1 2 2 2 3 4
0 0 0 0 0 0 1 2 3 3 4 4 5 4 4 4 4 3 4 4 4 4 4 3 3 3 3 3 4 4 3 2 1 0 0 0 0 1 2 3 2 3 4
0 0 0 0 0 0 1 1 1 1 1 2 2 2 2 2 3 3 4 4 4 4 3 3 3 3 3 3 3 3 3 3 2 1 1 1 1 1 3 4 3 3 4
0 0 0 0 0 0 1 1 1 1 0 1 1 1 1 1 1 2 3 3 3 3 3 3 3 3 3 3 3 3 3 3 3 3 2 2 2 3 4 5 5 4 4
0 0 0 0 0 1 1 2 2 1 0 0 0 0 0 0 0 1 1 1 1 3 3 3 3 3 3 3 3 3 3 3 3 3 3 3 3 3 4 4 4 4 4
0 0 0 0 0 1 1 1 1 1 0 0 0 0 0 0 0 0 0 0 1 2 3 3 3 3 3 3 3 3 3 3 4 4 4 4 3 3 3 3 3 3 3
0 0 0 0 0 0 0 0 0 0 0 0 0 0 0 0 0 0 0 0 1 2 3 3 3 3 3 3 3 3 3 4 5 5 5 5 4 3 3 3 3 3 3
0 0 0 0 0 0 0 0 0 0 0 0 0 0 0 0 0 0 0 0 0 1 1 2 3 3 3 3 3 3 3 4 4 4 5 6 5 4 3 2 3 3 3
0 0 0 0 0 0 0 0 1 1 1 0 0 0 0 0 0 0 0 0 0 0 0 1 2 3 3 3 3 3 3 2 2 3 5 5 5 4 3 2 2 2 2
0 0 0 0 0 0 0 0 1 2 1 0 0 0 0 0 0 0 0 0 0 0 0 0 1 1 2 1 1 3 3 2 2 2 4 5 5 4 3 2 1 1 1
1 1 1 1 0 0 0 1 1 1 0 0 0 0 0 0 0 0 0 0 0 0 0 0 0 1 2 1 1 3 3 3 2 2 3 5 5 4 3 2 0 0 1
3 3 2 2 1 1 1 2 2 1 1 1 1 1 1 1 1 1 1 1 0 0 0 1 1 3 3 3 3 3 3 3 3 1 2 4 5 3 2 1 0 0 1
4 4 3 3 3 2 3 3 3 3 2 2 2 2 2 2 2 2 2 1 0 0 1 2 4 5 4 4 3 3 3 3 3 2 1 2 2 1 1 0 0 0 1
4 4 3 3 3 3 3 3 3 3 3 2 1 1 1 1 1 1 1 1 1 2 3 4 5 6 6 5 4 3 3 3 3 2 1 0 0 0 0 0 0 0 0
7 5 4 3 3 3 3 3 3 2 1 1 0 0 0 0 0 0 1 1 2 4 5 4 5 6 7 7 6 4 3 3 4 3 1 0 0 0 0 0 0 0 0
10 8 5 3 3 3 3 3 3 1 0 0 0 0 0 0 0 1 2 2 3 5 6 4 5 7 9 8 7 5 4 4 5 4 1 0 0 0 0 0 0 0 0
Wind_Speed
1 1 1 4 5 6 7 8 9 10 11 12 12 14 15 15 15 14 14 14 15 15 15 15 15 14 14 14 14 14 14 14 13 13 11 11 11 12 12 13 12 9 12
1 0 2 5 6 7 8 8 9 9 10 12 12 14 14 14 14 14 14 14 15 15 15 15 14 14 13 14 14 13 13 13 13 12 11 10 11 11 11 12 12 8 12
1 1 2 6 7 8 8 8 9 9 10 11 12 12 13 14 14 14 14 14 14 15 15 15 14 13 12 12 12 12 12 12 11 11 10 6 7 10 11 11 11 11 11
2 1 2 6 7 8 8 8 9 10 11 11 11 13 13 14 14 14 14 14 14 14 15 14 13 12 13 12 11 10 10 10 10 9 5 5 5 9 10 10 10 11 11
2 1 2 6 7 7 8 9 9 10 11 12 12 12 13 13 13 14 13 13 13 14 14 14 13 12 12 12 10 9 9 9 9 7 5 4 4 8 9 10 10 10 10
2 2 2 7 7 7 9 9 9 10 11 11 11 11 12 12 12 13 12 12 12 12 13 13 13 12 11 10 9 8 8 8 7 5 4 4 3 6 8 9 10 10 9
2 2 2 7 7 7 7 8 9 10 11 10 10 10 11 11 12 11 11 12 11 11 12 12 12 11 10 9 8 7 7 8 5 4 4 4 4 6 7 9 9 9 9
3 3 3 5 6 6 6 7 8 9 10 10 10 11 11 11 11 11 11 11 10 11 11 11 10 10 9 8 7 7 6 6 4 4 4 4 5 6 7 8 9 9 9
3 3 2 3 3 5 7 7 7 8 9 8 9 9 10 10 10 10 10 10 10 10 10 10 9 8 8 7 6 6 6 5 3 3 4 3 5 6 7 8 8 8 8
3 3 2 3 3 2 3 5 6 7 7 7 8 8 9 9 9 9 9 9 9 9 8 8 8 7 7 6 5 5 5 3 2 3 3 4 6 7 7 7 8 8 8
2 2 2 2 3 2 2 3 4 5 5 5 5 6 5 3 4 5 7 8 8 7 7 7 7 6 6 5 5 5 4 2 2 2 3 5 7 7 6 7 7 7 7
2 1 1 2 2 2 2 2 2 2 2 3 2 3 2 3 3 4 5 6 6 6 6 6 6 5 4 3 3 3 2 2 1 1 2 5 6 6 6 6 6 6 7
2 1 1 1 2 2 2 2 2 1 2 2 2 3 3 2 2 2 2 2 2 3 2 3 3 2 3 2 2 2 2 1 1 0 1 4 5 6 6 6 6 6 6
2 2 1 1 2 2 2 1 2 2 1 2 2 3 2 2 2 1 1 1 2 2 2 2 2 2 3 2 2 2 2 1 0 0 1 3 4 5 5 6 6 6 6
3 2 2 2 2 2 2 1 2 1 1 1 2 2 2 2 1 1 1 1 2 2 2 2 2 2 2 2 1 1 1 1 1 0 0 2 4 4 4 5 5 6 6
4 3 2 2 2 2 2 1 1 1 1 1 1 2 2 2 2 2 2 2 1 2 2 2 2 2 1 1 1 1 1 1 1 1 1 1 2 3 3 4 4 5 5
4 4 3 3 2 2 2 2 1 1 1 1 1 1 2 2 2 2 2 2 1 2 3 2 2 2 1 1 1 1 0 0 1 1 0 0 1 3 4 4 4 4 5
4 4 3 3 3 2 2 1 1 1 1 1 1 1 2 2 3 2 2 1 2 2 2 2 2 2 1 1 1 1 1 0 0 1 1 1 1 1 2 3 3 3 4
5 4 3 3 3 3 2 2 1 1 1 1 1 1 2 2 3 3 2 2 2 2 2 2 2 2 1 1 0 0 1 1 1 1 1 2 2 2 1 2 3 3 4
5 4 4 3 3 3 2 2 1 1 1 0 1 2 2 2 3 3 2 2 3 2 2 2 2 2 1 1 0 1 1 1 1 1 2 2 2 2 2 2 1 2 4
5 5 4 4 3 3 2 2 2 1 0 0 1 2 2 3 3 3 2 2 3 2 2 3 2 2 1 2 1 1 2 1 1 1 1 1 2 2 2 2 2 2 2
6 6 5 5 4 3 3 2 2 1 1 1 0 0 1 2 3 3 3 3 3 3 3 3 3 2 1 2 2 1 1 2 2 1 1 2 2 2 2 3 3 3 2
7 7 6 6 5 4 3 2 2 2 1 1 0 0 0 2 2 2 3 3 3 3 3 4 4 4 2 2 2 2 2 2 2 2 1 1 1 1 2 2 3 3 3
8 7 6 6 5 4 4 3 3 2 2 1 1 0 0 1 2 3 3 4 3 3 3 4 4 3 3 2 2 1 2 2 2 1 2 1 1 2 2 2 2 2 3
8 7 6 5 4 4 4 4 4 2 2 1 0 0 1 1 1 2 3 3 4 3 4 4 3 4 3 3 3 2 2 1 2 2 2 2 1 2 2 2 2 2 3
6 6 6 6 5 4 5 4 4 4 2 2 1 1 1 1 1 1 2 3 3 3 4 4 4 5 4 4 3 3 3 2 3 3 3 2 2 2 2 2 2 2 2
Wind_Direction
274 284 124 96 97 106 105 103 106 114 123 128 132 136 139 139 137 135 134 132 131 130 132 133 131 129 129 130 131 130 129 128 126 127 127 128 130 130 128 126 126 124 125
170 228 127 98 95 104 105 103 108 114 119 126 130 134 138 139 137 136 134 132 132 131 130 129 130 129 131 133 132 130 130 129 127 126 125 128 131 130 130 130 130 129 128
110 124 131 108 105 106 104 103 109 115 119 126 132 137 137 137 137 137 135 136 134 132 130 130 130 131 131 132 130 130 130 129 128 127 123 121 128 132 134 131 132 129 127
110 101 121 111 109 109 107 108 108 114 119 124 130 132 134 137 138 136 136 138 135 132 131 131 133 132 130 128 126 128 132 130 130 128 115 120 130 136 138 136 136 134 133
88 82 119 112 110 111 111 111 109 112 118 121 124 128 133 135 137 137 136 137 136 135 134 133 131 127 128 125 123 122 128 132 128 120 115 116 122 142 144 142 143 139 137
77 69 106 109 107 108 111 110 110 115 119 120 127 129 133 134 133 134 136 136 136 135 135 135 133 130 129 127 125 124 128 126 118 118 121 124 133 148 150 148 146 144 143
87 64 89 111 106 103 109 110 109 114 119 118 124 130 133 133 133 136 135 132 132 133 136 135 133 133 133 132 129 129 129 129 123 129 134 140 150 154 154 154 151 150 150
91 70 70 102 103 100 109 113 114 116 118 118 119 123 129 131 131 133 135 132 132 134 135 134 133 135 137 136 134 130 128 128 133 140 145 151 158 157 155 155 154 154 151
74 70 54 62 85 100 106 110 118 121 119 120 122 124 127 131 133 134 134 134 136 135 136 135 136 137 135 134 135 132 129 129 139 153 160 162 164 161 158 157 158 157 157
72 66 55 51 51 66 92 110 118 123 126 126 126 128 130 132 135 139 137 137 138 138 138 138 139 138 134 128 126 129 125 118 133 153 163 169 171 171 169 170 170 169 167
89 63 59 57 50 55 76 106 118 124 122 123 118 124 123 110 117 130 138 142 142 142 141 141 142 139 131 119 111 107 103 91 115 142 159 168 175 176 172 173 171 171 170
147 108 77 71 64 56 75 67 59 80 81 84 80 91 90 94 108 120 137 150 151 149 146 139 134 129 112 90 90 88 75 86 94 136 165 176 182 183 179 174 172 174 176
170 156 101 91 77 74 65 71 61 64 73 76 81 84 85 84 92 95 99 124 124 131 107 100 91 87 95 99 94 89 89 91 99 164 171 182 185 186 183 176 176 179 184
149 152 115 104 93 90 86 77 75 76 79 84 82 87 94 93 89 102 102 92 89 91 91 85 88 92 93 99 105 108 108 115 112 172 177 191 188 190 188 186 186 189 193
154 156 138 123 121 110 96 87 95 93 99 99 87 89 105 111 109 111 107 108 107 107 113 114 103 96 92 85 91 119 135 151 143 164 223 199 188 189 195 197 198 198 197
173 172 154 143 143 123 121 122 110 115 111 106 112 112 118 122 124 117 106 101 104 115 117 117 112 104 95 84 58 72 150 159 163 197 225 233 202 196 205 214 213 208 204
176 172 164 158 143 136 141 148 141 139 131 134 140 125 131 132 135 134 124 119 121 115 114 106 94 89 97 93 61 24 39 139 174 203 197 244 247 217 215 222 225 224 218
168 170 173 162 150 150 153 154 148 150 152 158 149 137 145 146 145 142 140 147 137 120 119 122 119 109 94 92 68 10 8 347 251 211 181 211 234 241 231 226 231 235 232
179 173 166 158 154 159 155 142 132 123 140 160 142 150 159 160 157 151 151 149 134 130 135 150 128 134 135 121 102 4 346 324 296 253 227 224 221 222 232 250 249 240 234
177 170 165 160 155 147 135 115 96 76 61 107 156 167 167 170 161 151 151 145 139 141 150 151 142 131 140 145 104 17 345 312 292 259 245 238 225 223 218 228 252 269 252
172 170 172 168 164 147 141 149 153 174 175 99 204 182 180 176 164 158 158 151 154 163 174 160 143 147 149 136 97 22 349 324 278 267 253 242 246 237 220 214 212 237 261
183 182 179 180 176 171 172 164 150 144 151 178 241 188 180 181 177 176 169 170 169 166 169 172 157 152 163 156 139 111 355 338 328 289 249 231 246 242 231 224 216 224 234
190 189 189 188 186 182 162 124 103 80 55 49 26 290 196 182 182 179 172 175 180 179 186 192 181 170 173 180 168 156 162 235 306 309 279 254 249 243 245 241 231 234 229
198 190 187 186 186 177 161 157 153 160 184 212 206 247 263 180 180 183 181 183 191 190 193 202 192 183 172 187 189 195 191 174 188 294 308 296 270 254 252 250 246 245 238
191 185 184 180 182 175 172 172 165 173 194 173 133 221 246 235 204 192 186 188 195 197 199 202 193 191 189 189 187 180 183 198 191 204 266 290 296 273 259 241 236 242 245
182 179 175 175 183 178 177 177 175 179 188 177 192 219 253 257 236 206 192 193 201 203 204 207 203 200 200 197 201 194 186 188 199 199 228 250 270 281 272 248 240 241 240